Regional Weather Roundup
Issued by NWS Upton, NY

Current Version | Previous Version | Graphics & Text | Print | Product List | Glossary Off
Versions: 1 2 3 4 5 6 7 8 9 10 11 12 13 14 15 16 17 18 19 20 21 22 23 24 25 26 27 28 29 30 31 32 33 34 35 36 37 38 39 40 41 42 43 44 45 46 47 48 49 50

000
ASUS41 KOKX 141805
RWROKX

REGIONAL WEATHER ROUNDUP
NATIONAL WEATHER SERVICE NEW YORK NY
200 PM EDT SUN SEP 14 2014

NOTE: "FAIR" INDICATES FEW OR NO CLOUDS BELOW 12,000 FEET WITH NO
SIGNIFICANT WEATHER AND/OR OBSTRUCTIONS TO VISIBILITY.

NYZ071-072-176-178-NJZ106-104-141900-
NEW YORK CITY METRO AREA


CITY           SKY/WX    TMP DP  RH WIND       PRES   REMARKS
CENTRAL PARK   SUNNY     70  43  37 VRB7      30.25F
LAGUARDIA APRT PTSUNNY   67  43  41 VRB7      30.22F
KENNEDY INTL   PTSUNNY   69  41  36 NW7       30.23F
NEWARK/LIBERTY PTSUNNY   69  44  40 NW5       30.22F
BRNX BOT. GARD   N/A     66  43  42 SW2       30.24F
TETERBORO      SUNNY     70  42  36 NW9       30.21F
$$

NYZ177-179-078>081-141900-
LONG ISLAND NEW YORK

CITY           SKY/WX    TMP DP  RH WIND       PRES   REMARKS
FARMINGDALE    SUNNY     68  44  42 N9        30.22F
ISLIP          PTSUNNY   65  44  46 NW9       30.20F
SHIRLEY        SUNNY     66  44  45 CALM      30.22F
WESTHAMPTON    SUNNY     68  45  43 N9        30.22F
MONTAUK POINT    N/A     65  47  52 NW6       30.22S
$$

NYZ052-065-067-141900-
HUDSON VALLEY

CITY           SKY/WX    TMP DP  RH WIND       PRES   REMARKS
WHITE PLAINS   SUNNY     65  40  39 N7        30.22F
NEWBURGH       MOSUNNY   64  46  52 N6        30.26S
MONTGOMERY     SUNNY     65  44  46 CALM      30.23F
POUGHKEEPSIE   SUNNY     65  42  43 NW6       30.23F
ALBANY         PTSUNNY   59  42  53 VRB3      30.28F
$$

NJZ001-105-106-008-010-013-015-019>022-104-141900-
NEW JERSEY

CITY           SKY/WX    TMP DP  RH WIND       PRES   REMARKS
NEWARK/LIBERTY PTSUNNY   69  44  40 NW5       30.22F
TETERBORO      SUNNY     70  42  36 NW9       30.21F
CALDWELL       SUNNY     66  43  43 CALM      30.23F
MORRISTOWN     MOSUNNY   68  46  45 E6        30.23F
SOMERVILLE     SUNNY     69  46  43 CALM      30.21F
LINDEN         FAIR      72  47  40 NW6       30.24F
SUSSEX         SUNNY     68  45  43 N5        30.23F
ANDOVER          N/A     66  45  46 VRB3      30.23F
TRENTON        SUNNY     67  49  52 VRB3      30.23F
MILLVILLE      MOSUNNY   66  49  54 CALM      30.24F
ATLANTIC CITY  PTSUNNY   66  52  60 CALM      30.23F
WRIGHTSTOWN    MOSUNNY   66  49  55 W6        30.22F
TOMS RIVER     MOSUNNY   64  48  55 CALM      30.24F
BELMAR         MOSUNNY   66  48  52 W7        30.23F
$$

PAZ047>061-062-071-141900-
EASTERN PENNSYLVANIA

CITY           SKY/WX    TMP DP  RH WIND       PRES   REMARKS
PHILADELPHIA   PTSUNNY   65  45  48 CALM      30.25F
ALLENTOWN      SUNNY     66  44  45 SE5       30.24F
SCRANTON       MOSUNNY   63  41  44 NW10      30.25F
$$

CTZ002-004>006-009-010-012-RIZ004-006-007-MAZ004-011-015-141900-
SOUTHERN NEW ENGLAND
 IN CT

CITY           SKY/WX    TMP DP  RH WIND       PRES   REMARKS
BRADLEY INTL   MOSUNNY   66  42  41 N7        30.21F
HARTFORD       SUNNY     65  43  44 VRB6      30.21F
DANBURY        SUNNY     64  44  48 N9        30.23F
WTRBRY/OXFORD  MOSUNNY   63  45  51 VRB6      30.23F
BRIDGEPORT     SUNNY     68  46  45 NW7       30.21F
MERIDEN        SUNNY     68  42  38 N9        30.21F
NEW HAVEN      MOSUNNY   68  44  42 W6        30.21F
CHESTER        FAIR      64  43  45 N9        30.22S
GROTON         SUNNY     66  48  52 NW7       30.19F
WILLIMANTIC    SUNNY     66  45  46 VRB6      30.21F

 IN RI

CITY           SKY/WX    TMP DP  RH WIND       PRES   REMARKS
PROVIDENCE     MOSUNNY   67  44  43 W8        30.19F
BLOCK ISLAND   SUNNY     64  48  55 CALM      30.20F
WESTERLY       SUNNY     67  46  47 VRB3      30.20F

 IN MA

CITY           SKY/WX    TMP DP  RH WIND       PRES   REMARKS
BOSTON         MOSUNNY   64  41  42 NW12G18   30.18F
WORCESTER      SUNNY     59  42  53 W9        30.21S
WESTFIELD      SUNNY     65  41  41 CALM      30.21F
PROVINCETOWN   MOSUNNY   61  46  59 N10       30.20S
NANTUCKET      MOSUNNY   64  50  60 N10G18    30.18F
$$

ANZ330-335-338-340-345-350-353-355-141900-
COASTAL MARINE OBSERVATIONS


STATION/POSITION TIME  SKY/WX   TEMP    WIND        PRES    VSBY  WAVE
                                AIR SEA DIR/SP/G                  HT/PER
                 (UTC)          (F)     (DEG/KT/KT) (MB)    (MI)  (FT/S)
NY HARB ENTRANCE NOT AVBL
4S FIRE IS       NOT AVBL
23SW MTP         1800                                 N/A           2/ 4
HUDSON CANYON    1800            62 73   20/  8/ 12 1023.0          4/ 6
EXECUTION ROCKS  1800            64 72  320/  4/  6   N/A
WESTERN LI SOUND 1800            64     340/  4/  8   N/A           1
CENTRAL LI SOUND 1700            61 72  340/  6/  8   N/A           1
EASTERN LI SOUND 1700            65 69  290/  2/  6   N/A
ROBBINS REEF     1800            64     360/  7/  9 1022.4
$$


>>>>>>>>>>>>>>>>>>>>>>>>>>>> KEY <<<<<<<<<<<<<<<<<<<<<<<<<<<
>                                                          <
>     SKY/WX - SKY CONDITION/PRESENT WEATHER               <
>     TMP    - TEMPERATURE IN FAHRENHEIT                   <
>     DP     - DEWPOINT IN FAHRENHEIT                      <
>     RH     - RELATIVE HUMIDITY IN PERCENT                <
>     WIND   - DIRECTION AND SPEED IN MPH                  <
>     PRES   - MEAN SEA LEVEL PRESSURE IN INCHES OF HG     <
>     WCI    - WIND CHILL INDEX                            <
>     VSB    - VISIBILITY IN MILES                         <
>     HX     - HEAT INDEX                                  <
>     TC     - TEMPERATURE IN CELSIUS                      <
>     VRB    - VARIABLE WIND DIRECTION                     <
>                                                          <
>>>>>>>>>>>>>>>>>>>>>>>>>>>> KEY <<<<<<<<<<<<<<<<<<<<<<<<<<<




USA.gov is the U.S. government's official web portal to all federal, state and local government web resources and services.